GFSSGP_500_spd_132.txt.gz
Wind_Speed
37 35 35 36 35 34 28 28 31 31 32 31 29 26 23 20 17 20 14 16 14 9 8 9 9 5 4 2 3 4 4 4 5 6 7 9 10 10 9 6 5 5 4 4 3 4 5 5 5
42 40 39 40 42 38 28 27 31 38 37 34 33 31 30 29 25 23 20 15 15 14 10 8 9 9 8 5 4 5 6 6 5 6 6 8 9 10 10 8 7 7 6 5 5 5 6 6 5
44 45 46 47 46 43 29 29 32 39 41 41 38 36 35 31 29 27 23 21 17 15 13 12 10 10 10 7 4 4 5 7 5 6 8 8 9 10 10 10 10 9 8 5 6 7 8 8 8
50 49 52 52 49 39 34 36 34 36 38 40 40 40 40 38 31 29 30 24 21 20 18 18 18 15 11 12 12 6 3 5 8 7 8 9 10 10 11 12 12 11 10 7 7 8 9 9 11
50 53 55 55 50 42 40 41 38 39 41 39 39 39 38 39 36 33 32 33 31 30 26 21 17 12 8 8 8 10 10 11 10 10 10 10 10 10 10 12 13 11 10 8 8 10 12 12 12
49 52 55 54 51 45 45 43 45 42 42 44 40 39 38 37 37 36 33 32 30 28 25 20 16 12 8 10 11 8 11 12 11 13 14 14 13 11 10 11 11 11 10 9 12 13 14 15 17
51 52 51 52 52 50 49 49 49 46 47 47 45 42 44 41 39 39 35 33 30 28 26 23 21 19 15 16 17 14 11 11 12 13 15 17 17 16 14 13 12 13 14 14 15 17 19 20 21
47 54 55 54 49 46 52 52 51 51 50 50 54 46 43 46 42 41 39 36 34 30 27 26 26 23 18 22 23 19 20 15 15 16 17 18 17 18 18 18 18 18 20 21 21 21 22 22 23
45 50 56 54 48 45 49 47 53 54 56 53 53 51 56 44 45 44 42 39 38 33 30 29 29 28 27 26 24 22 17 18 20 21 21 22 21 22 21 22 23 25 24 24 24 24 26 27 27
43 49 45 44 43 40 47 49 52 53 58 61 57 56 51 50 49 48 46 43 40 37 35 34 32 30 28 25 25 25 26 28 24 22 21 17 19 23 27 27 27 27 26 28 28 29 31 30 31
36 36 41 45 39 40 47 49 55 53 56 61 61 58 55 54 51 51 49 46 43 41 39 38 36 33 29 27 26 27 30 28 24 24 22 25 28 31 31 31 31 32 32 33 35 36 36 35 37
41 39 38 38 39 43 45 47 54 57 54 58 63 65 59 55 53 52 50 48 45 42 42 42 40 35 32 31 28 30 32 32 31 32 34 36 37 37 36 35 35 35 36 39 39 41 42 42 42
45 44 41 38 34 40 48 48 51 58 56 59 59 63 62 58 55 53 52 50 47 46 45 45 43 39 34 33 32 32 36 35 36 36 35 36 39 40 39 39 39 39 40 42 42 45 45 47 47
52 50 48 43 40 39 40 48 51 56 57 59 60 60 59 58 56 56 54 51 50 49 47 45 42 39 36 32 32 32 36 31 37 35 35 37 37 39 40 41 41 43 42 43 44 43 47 48 52
59 56 53 50 48 44 40 42 47 54 56 55 54 56 59 55 52 51 53 54 52 51 49 47 43 41 38 36 34 37 39 41 36 39 38 40 39 40 39 41 43 43 43 42 41 44 42 46 51
59 62 56 54 53 50 48 40 45 48 55 53 53 49 53 53 46 43 49 52 52 53 52 50 47 43 41 41 41 39 38 40 36 38 40 41 41 40 41 42 43 40 39 40 40 43 44 44 43
60 58 58 58 57 54 52 47 45 45 47 50 51 51 46 47 46 41 39 43 47 48 48 48 48 45 41 41 37 37 40 35 37 40 41 40 41 41 42 39 40 40 39 40 40 41 41 41 43
62 64 62 62 60 57 56 53 44 44 41 43 43 48 48 46 42 38 36 37 42 46 47 47 47 45 39 37 34 36 39 40 39 42 41 42 42 42 42 43 44 42 41 42 42 40 41 41 41
69 65 66 65 63 60 52 54 48 46 40 39 40 42 45 47 44 42 39 36 36 38 41 41 40 40 39 38 39 39 38 39 42 41 40 42 43 44 44 43 45 45 42 42 43 39 42 41 43
71 70 68 64 66 63 55 55 54 44 45 44 40 39 39 40 42 43 42 41 38 36 35 35 34 33 34 36 36 35 37 39 40 40 42 43 42 42 44 44 45 44 44 43 43 38 35 41 50
72 71 71 69 65 62 55 56 54 46 44 44 42 38 37 38 39 41 43 42 39 36 34 34 33 34 35 35 36 36 37 36 37 38 40 39 39 40 41 42 42 41 41 42 43 43 42 46 48
69 67 68 68 65 61 57 52 54 47 48 45 41 39 40 41 40 39 39 40 40 38 37 38 38 38 38 38 38 38 37 37 38 38 37 37 38 38 38 38 40 41 42 41 44 46 44 46 53
65 63 66 66 60 55 59 55 51 50 48 47 47 45 42 38 36 37 36 37 39 40 42 40 40 40 40 42 43 42 40 40 39 40 40 40 40 40 39 41 41 41 43 43 39 47 49 52 50
46 47 60 60 55 45 57 55 50 56 47 45 46 46 43 40 37 36 36 40 43 42 43 41 40 42 43 45 46 46 45 45 45 43 43 42 42 43 43 42 42 41 43 43 44 43 44 43 39
52 46 43 45 43 62 59 57 53 57 50 46 43 45 45 40 34 36 38 39 40 40 40 41 41 42 44 46 47 47 47 48 46 44 42 43 44 43 43 42 42 40 37 36 36 35 32 33 35
49 53 54 54 66 65 55 60 53 59 53 49 45 44 41 37 36 37 38 40 41 39 38 36 38 39 40 43 44 44 43 45 46 45 46 43 41 39 38 35 32 32 32 31 32 32 33 35 39
44 49 45 31 42 36 50 53 62 56 53 50 48 45 42 41 39 37 37 35 36 35 33 34 35 37 39 41 42 43 44 46 45 45 44 43 39 36 33 32 30 28 28 31 33 37 40 42 45
39 35 43 32 39 38 40 49 47 53 48 46 46 42 40 37 34 32 32 34 35 32 32 32 34 37 39 40 40 39 40 39 38 40 41 40 36 30 27 25 26 29 32 35 38 41 44 46 48
40 37 47 36 32 38 35 30 42 44 43 43 37 39 35 34 32 32 34 33 31 30 30 31 34 35 35 35 38 37 36 36 37 42 40 39 34 30 29 29 33 35 35 37 40 42 43 43 43
34 44 43 36 35 34 27 37 47 43 41 36 35 35 35 34 34 34 31 28 28 25 26 27 29 29 29 29 27 27 29 31 37 44 41 47 33 27 29 32 36 36 36 38 40 43 45 47 48

GFSSGP_500_spd_138.txt.gz
Wind_Speed
36 34 34 33 34 35 32 30 23 18 21 36 39 26 28 29 38 26 17 14 15 5 2 3 4 5 6 7 9 9 6 4 4 5 5 5 6 7 7 7 8 9 9 8 7 7 8 7 7
42 40 39 37 41 39 32 25 32 16 25 39 42 20 17 29 33 29 16 10 6 8 7 5 2 3 4 6 7 6 6 5 4 5 6 6 6 6 7 8 8 9 9 9 8 8 8 7 7
50 46 45 45 46 45 33 28 21 16 34 44 32 32 29 37 33 29 18 9 15 13 11 10 8 5 3 6 9 9 7 6 7 8 7 8 8 8 8 7 7 7 7 8 8 8 7 7 6
54 54 54 54 52 41 33 29 22 18 34 43 44 32 35 41 39 20 24 20 20 17 16 15 12 10 10 12 11 12 10 7 7 10 11 11 11 10 10 9 9 9 9 9 9 8 8 7 7
53 58 59 58 54 44 39 30 31 22 25 30 36 36 40 39 41 33 34 26 24 22 20 19 17 16 16 15 11 8 8 9 9 9 9 8 9 8 9 10 11 11 12 12 10 9 9 10 11
50 53 61 61 57 49 44 38 39 31 20 28 31 35 39 43 43 36 37 32 30 28 25 24 23 21 18 14 12 7 6 6 7 10 11 11 10 10 11 12 12 13 14 14 13 13 13 14 17
48 49 56 57 58 53 48 44 46 44 28 30 34 41 36 47 44 33 37 34 30 27 28 26 26 24 20 18 15 14 12 10 9 11 12 11 12 13 14 14 14 14 15 16 17 18 19 21 23
45 48 51 56 57 55 50 49 50 51 50 35 38 23 35 43 52 39 37 35 32 28 26 26 25 23 22 21 20 19 16 17 16 15 14 13 13 15 17 19 18 19 18 19 19 22 24 26 28
46 50 54 49 52 51 47 42 33 38 53 49 51 40 32 50 55 45 37 38 36 32 28 26 25 24 23 22 21 20 19 18 17 15 15 16 19 19 21 21 22 21 21 22 26 27 29 30 31
42 46 50 43 42 45 42 41 39 34 46 55 57 53 41 56 55 52 40 41 42 37 32 30 29 28 27 24 22 20 21 21 21 20 20 22 22 22 22 24 25 24 24 28 30 30 32 33 34
45 40 35 40 44 41 43 38 32 36 51 52 58 56 53 61 56 55 43 44 46 41 38 35 34 33 31 28 23 22 23 24 24 24 24 26 25 24 25 27 26 26 33 36 36 37 38 37 38
49 43 41 38 40 44 44 40 36 43 56 50 50 49 49 59 62 55 49 48 49 47 44 43 40 38 35 31 27 25 26 27 27 27 28 28 25 26 26 30 31 36 38 40 39 41 41 42 43
52 47 47 43 42 40 45 49 47 50 50 48 50 49 48 53 64 59 52 49 52 50 47 53 41 38 38 32 29 28 28 29 30 29 29 29 28 29 31 32 34 36 40 40 41 41 42 44 46
52 52 50 48 45 44 42 43 52 50 50 52 50 49 52 53 62 53 51 55 53 50 59 62 52 39 37 34 28 28 29 32 31 31 32 33 34 33 33 36 34 35 36 39 40 42 44 45 46
56 56 56 53 48 47 49 47 44 43 51 53 55 52 50 55 54 41 44 47 52 58 59 49 9 26 36 36 31 30 31 32 33 35 34 36 36 39 37 36 37 39 40 40 41 43 41 44 48
62 58 59 55 53 51 51 44 43 43 46 51 54 53 50 49 43 40 41 43 47 57 40 39 38 34 41 39 35 34 32 33 35 38 36 35 38 40 40 40 39 39 39 42 41 42 44 44 46
66 65 63 56 55 53 54 43 47 48 44 42 46 49 49 45 40 38 36 39 40 47 48 46 43 42 42 41 38 34 33 33 36 37 35 39 39 41 41 42 44 43 42 44 44 43 43 46 46
69 68 64 63 56 56 54 50 49 46 46 43 41 38 38 41 41 38 35 33 35 45 44 35 41 41 43 40 34 34 33 32 36 35 38 41 41 40 42 44 47 45 44 44 44 45 45 46 45
62 64 62 59 48 51 54 52 50 49 47 45 43 38 33 34 34 35 37 34 30 34 34 34 38 39 39 31 33 32 34 38 37 38 41 40 39 41 42 43 44 46 46 46 46 45 43 43 44
66 66 62 53 50 50 51 50 52 47 47 47 45 35 35 34 31 31 33 34 32 31 34 39 32 34 38 36 36 34 36 37 38 37 37 38 39 39 41 43 46 47 46 45 44 44 42 43 47
68 68 65 60 30 39 38 35 41 48 49 49 46 38 35 34 31 30 29 28 29 33 37 35 30 33 34 37 36 36 37 36 37 38 36 37 37 40 41 43 44 45 45 45 46 45 44 44 49
66 64 62 58 39 34 36 43 38 57 45 42 46 38 38 36 33 29 29 24 25 32 33 31 35 24 30 34 34 34 34 35 38 36 35 35 38 41 44 44 45 46 48 48 47 46 46 44 44
56 59 63 63 50 39 37 43 45 45 51 44 39 37 39 38 35 30 29 26 22 28 31 28 26 26 32 30 30 33 35 37 36 34 32 34 38 39 39 42 43 45 46 47 48 48 46 48 49
51 51 39 40 51 51 39 39 46 47 47 39 43 38 38 37 37 35 34 31 24 27 28 28 28 25 26 27 30 31 34 36 33 30 32 34 36 38 38 39 39 39 40 42 43 45 46 48 48
49 50 48 41 52 59 56 39 49 48 38 42 35 41 40 39 37 36 34 36 28 31 29 29 20 21 24 26 27 30 32 34 35 31 34 37 37 38 40 42 41 39 39 38 39 42 44 45 42
46 47 55 50 46 59 61 64 58 37 26 32 35 35 41 40 41 39 35 36 31 31 32 25 18 24 26 27 28 31 33 36 34 34 36 36 37 39 36 38 38 36 36 38 38 40 40 39 41
29 49 45 44 37 47 60 56 42 28 29 31 31 38 38 42 41 39 38 37 39 35 32 19 31 30 27 29 31 34 35 34 32 36 34 35 35 35 35 36 37 36 37 38 35 39 39 36 37
47 36 47 48 37 38 40 52 46 41 35 42 41 42 44 41 43 43 44 42 41 37 27 30 28 30 30 30 32 34 33 35 35 34 34 35 35 35 33 34 36 36 41 40 42 40 37 40 42
48 46 48 47 38 39 38 44 44 34 43 51 49 44 39 46 46 45 44 43 43 28 30 32 32 31 31 29 29 31 33 34 32 32 33 33 30 31 31 33 36 38 40 43 39 42 44 44 45
38 46 49 53 38 39 33 31 39 35 51 52 50 49 44 39 43 43 41 39 28 35 34 33 32 30 30 28 28 32 30 29 29 31 33 33 33 34 36 40 38 41 40 40 36 35 40 44 48

GFSSGP_500_spd_141.txt.gz
Wind_Speed
36 35 38 35 38 39 34 29 27 21 11 2 20 27 37 35 33 24 7 7 13 8 7 4 5 5 5 5 5 5 6 5 4 4 4 5 6 6 6 6 6 6 7 7 7 7 7 8 8
44 42 42 42 45 42 34 28 32 17 9 9 19 30 39 42 35 31 26 18 13 9 7 4 4 3 3 4 4 5 6 4 4 4 5 6 6 7 6 7 7 6 7 7 7 8 8 9 8
51 49 49 48 48 47 32 29 29 24 7 17 24 30 39 48 37 27 21 7 5 8 5 7 5 4 3 1 2 4 6 6 5 6 7 8 8 9 10 10 11 10 10 10 9 9 9 11 11
53 57 55 57 54 42 34 29 25 36 23 19 25 34 42 41 47 34 3 11 11 12 13 11 10 9 8 7 7 6 7 7 5 6 8 10 11 11 11 10 10 9 9 11 11 11 11 13 15
54 60 61 61 57 45 39 32 29 32 28 16 23 28 41 43 40 38 25 19 15 17 17 16 15 15 14 11 11 9 7 7 8 8 9 10 9 9 9 9 10 10 10 12 13 13 14 15 17
53 57 65 64 59 49 46 37 33 37 39 27 19 30 32 38 42 36 30 28 25 22 21 20 19 19 17 18 15 9 9 7 7 8 10 11 11 11 11 10 12 12 12 11 12 14 16 18 19
49 54 57 61 59 56 50 43 41 36 40 37 11 37 35 37 34 34 32 31 28 26 24 24 23 21 21 20 17 12 13 13 11 11 11 10 11 11 11 11 13 14 15 15 15 15 18 20 23
34 52 55 59 60 58 52 50 46 44 47 37 27 33 35 41 47 45 35 30 28 27 24 23 24 23 22 22 20 18 18 17 16 16 16 15 15 14 14 15 15 16 18 18 18 18 21 24 26
40 43 51 50 55 50 45 47 50 49 50 40 31 27 38 42 52 50 40 30 27 27 25 24 22 23 23 23 21 21 19 18 18 17 16 15 15 17 17 19 20 20 21 21 20 22 24 27 30
50 46 35 38 46 45 40 45 45 50 50 48 36 33 44 41 57 53 45 32 29 28 28 26 25 25 26 26 24 23 20 20 20 19 17 16 19 22 21 21 22 23 23 24 25 27 31 32 33
49 51 36 32 39 45 42 44 44 45 39 52 51 42 50 50 55 57 51 37 33 32 33 31 30 30 31 30 28 24 21 22 22 20 18 20 22 24 25 25 25 25 26 28 30 34 37 38 39
53 46 43 39 39 41 45 40 46 49 47 46 56 50 59 59 62 61 55 42 40 37 35 37 37 37 36 34 29 25 23 24 24 24 24 26 24 23 23 26 25 26 30 32 35 38 38 39 39
57 49 47 44 44 41 43 50 46 53 53 55 52 56 57 66 66 62 58 53 49 44 41 42 47 43 39 36 29 26 25 28 28 26 27 27 26 27 26 27 28 29 29 31 32 35 36 38 40
51 54 51 49 47 44 42 41 51 46 53 58 61 62 59 59 60 56 55 46 47 48 45 48 50 56 50 35 29 26 26 29 29 30 29 29 29 30 31 31 28 31 32 35 38 39 39 38 41
56 56 56 56 50 47 45 46 42 41 48 54 59 57 50 49 55 55 54 32 39 48 50 56 59 33 54 40 33 25 26 29 30 30 30 31 32 33 33 32 32 33 32 32 34 37 37 38 39
61 60 59 54 54 52 50 50 43 45 48 52 58 53 47 44 45 48 33 33 40 44 50 48 44 36 29 26 25 35 24 27 30 30 31 32 34 35 33 34 35 37 37 36 37 40 40 40 40
66 68 64 55 55 55 56 50 46 50 47 46 48 49 49 45 42 40 27 29 39 43 49 50 44 40 38 40 50 37 21 27 31 32 30 32 34 36 36 36 39 39 40 41 38 38 40 41 42
68 67 67 61 55 57 57 54 49 49 50 45 43 42 40 39 38 35 31 28 33 39 45 48 38 38 35 39 35 25 24 28 30 32 32 31 32 34 37 38 38 40 40 40 41 41 41 42 40
62 63 62 58 55 53 55 55 53 50 52 47 45 41 37 30 26 30 33 31 36 36 43 39 33 34 31 29 18 19 27 29 30 33 33 32 34 35 34 35 38 39 40 41 44 44 43 43 44
68 62 64 56 53 55 52 50 47 47 48 46 43 43 37 29 27 24 24 29 34 31 33 31 27 27 35 28 27 29 33 31 30 31 31 34 35 32 35 37 39 40 42 44 46 48 48 47 46
67 66 62 59 51 43 50 48 47 47 47 43 44 40 38 33 29 25 22 26 25 27 30 33 29 24 28 31 33 33 34 26 30 33 34 33 30 33 35 38 40 42 45 47 48 49 50 51 51
65 66 62 60 53 54 43 48 44 46 46 44 42 40 39 33 31 27 26 23 23 25 25 29 32 23 24 31 36 21 21 31 32 33 33 31 30 33 37 40 42 43 45 47 49 51 53 52 48
56 58 62 59 55 50 46 37 37 40 47 45 41 41 37 36 33 30 27 27 25 22 21 27 15 22 22 28 34 22 26 27 32 33 32 31 33 35 40 41 43 44 45 46 47 48 50 51 47
37 46 60 60 54 57 48 44 35 36 47 47 43 39 36 36 33 33 30 30 25 23 22 22 23 25 17 22 17 22 27 29 29 31 30 29 31 37 39 40 41 41 42 43 43 44 43 44 45
40 46 49 45 59 59 50 42 43 33 40 42 39 43 36 32 34 33 31 31 29 23 21 22 20 12 18 24 25 27 27 27 27 25 26 28 33 34 36 39 40 41 40 39 41 39 39 38 38
44 51 52 50 46 59 54 47 45 37 31 33 33 32 34 37 33 34 33 33 31 27 27 22 18 20 22 26 24 23 24 23 24 24 26 29 30 33 37 39 39 39 40 38 37 38 39 40 37
40 53 53 45 37 47 60 49 47 35 25 28 35 37 37 32 36 37 36 34 30 30 32 23 20 24 26 26 24 24 26 26 25 26 27 28 33 36 36 35 36 36 36 36 39 41 41 42 40
32 36 56 46 38 46 57 57 56 37 27 31 31 31 36 34 37 40 37 36 34 33 31 24 24 30 29 26 27 27 27 26 24 27 30 31 35 34 32 33 34 35 35 39 39 40 40 40 38
25 48 58 48 44 34 43 60 55 34 34 32 32 34 35 38 40 36 37 34 36 33 32 27 30 27 30 29 27 24 23 23 30 30 30 34 31 30 32 33 36 37 41 42 39 40 29 30 35
35 40 47 57 49 37 37 47 60 46 40 40 36 36 35 33 32 39 36 37 37 33 30 28 31 31 28 27 25 25 29 31 30 28 31 29 29 31 34 37 40 43 44 44 41 43 43 34 41

GFSSGP_500_spd_147.txt.gz
Wind_Speed
43 41 41 39 41 40 35 30 33 28 18 22 20 18 24 16 10 10 9 17 4 9 8 11 10 9 7 6 5 4 2 1 1 1 1 3 4 5 5 5 5 5 4 5 6 7 8 9 12
51 48 46 46 47 43 32 28 33 23 26 25 19 20 23 20 9 14 12 10 8 6 5 11 12 10 8 6 6 5 2 1 1 0 2 4 5 5 5 5 6 7 7 7 7 8 9 9 12
55 53 51 53 52 48 31 29 31 34 31 27 22 22 20 16 10 14 14 10 5 5 14 8 7 9 9 8 6 5 3 2 2 3 2 3 5 6 7 7 7 7 8 8 8 9 10 11 13
57 59 60 61 57 43 34 26 32 37 32 35 31 29 27 19 15 17 12 5 2 8 19 10 7 8 6 5 5 4 2 3 3 5 5 6 6 7 6 6 6 7 9 9 10 10 11 11 12
50 58 64 65 59 48 38 32 36 43 39 38 38 36 34 21 16 20 17 12 9 12 17 9 10 9 9 7 1 2 2 5 6 6 6 7 7 8 9 9 10 11 11 13 13 12 13 14 14
43 49 59 67 60 52 42 40 39 47 44 42 42 41 38 34 23 20 13 15 17 20 19 17 14 14 13 10 6 4 4 7 9 8 7 8 8 9 10 10 11 12 13 14 15 16 17 18 18
46 46 45 45 51 57 53 48 45 45 45 42 44 46 43 39 37 31 27 23 25 24 22 21 18 16 13 10 10 9 7 8 7 7 7 8 10 10 11 12 13 14 15 16 18 19 21 22 23
50 50 48 44 37 41 49 51 52 50 48 42 51 53 49 45 42 38 33 24 24 32 27 28 22 19 14 13 14 14 13 14 12 13 12 13 15 17 18 19 18 18 19 21 22 23 24 26 27
54 58 54 47 41 31 32 49 57 58 53 50 55 56 52 54 48 44 38 30 24 29 27 27 24 22 16 15 15 17 18 20 21 18 17 18 17 17 18 20 20 22 24 24 26 28 28 29 30
60 64 58 49 44 36 28 45 55 63 60 54 54 58 55 55 51 47 41 33 26 25 21 24 25 23 19 17 17 19 21 21 20 19 18 19 19 20 20 21 23 25 27 28 29 30 32 33 34
61 65 55 48 51 43 34 41 55 62 64 59 57 61 59 52 51 50 45 38 37 36 26 24 25 23 22 21 21 23 22 20 20 19 20 21 22 22 22 24 26 27 28 29 30 31 33 34 36
63 59 55 52 51 47 44 44 52 58 60 64 66 64 59 53 50 50 48 46 41 36 31 25 25 28 27 25 26 26 23 22 22 21 24 25 25 26 26 26 27 28 30 30 33 34 34 36 37
66 60 56 56 56 48 49 46 45 51 57 61 67 67 67 62 50 42 46 48 46 41 35 30 28 27 27 29 29 28 25 25 25 26 28 30 30 30 30 30 31 32 33 35 36 37 38 38 39
67 64 63 58 56 53 52 51 48 46 55 55 61 66 69 68 62 52 51 50 51 44 36 32 29 29 29 30 33 33 32 31 29 29 32 34 34 34 32 31 33 34 36 38 39 39 37 37 38
69 72 66 60 54 56 54 56 59 47 54 54 57 60 66 70 62 57 48 47 46 39 34 30 32 35 40 41 39 37 38 37 35 34 33 35 35 34 34 35 35 36 38 39 39 38 38 38 36
71 74 70 61 57 57 60 58 52 45 50 53 55 57 60 66 68 65 60 52 48 42 33 36 34 36 40 41 40 39 35 41 34 42 45 46 41 37 37 39 38 38 39 39 38 37 35 34 33
74 74 71 62 61 57 61 57 51 48 50 56 58 58 59 61 66 67 67 63 56 57 46 37 37 38 42 37 34 35 33 34 34 32 36 47 41 42 45 39 39 37 36 37 35 34 34 34 36
67 73 72 70 60 61 62 59 55 51 54 59 63 61 60 61 60 64 63 58 55 45 34 33 34 34 33 29 27 28 28 26 29 35 41 47 44 44 46 42 35 38 36 33 35 36 36 37 38
70 69 72 71 65 62 62 63 60 58 57 62 64 63 62 61 57 56 54 47 42 34 40 35 30 29 29 30 28 27 27 28 27 40 38 46 49 52 49 39 32 32 32 33 37 38 39 38 39
75 72 71 68 67 65 64 66 63 60 58 60 65 63 64 64 60 55 54 48 40 37 40 35 33 29 26 28 28 30 27 29 34 33 33 45 48 50 48 33 31 30 31 34 35 37 37 39 41
73 75 69 66 64 65 64 67 65 65 61 58 59 55 63 64 58 49 42 45 43 42 43 41 38 34 25 27 28 26 29 30 38 32 35 40 47 54 51 33 27 23 29 33 34 36 38 40 42
72 73 72 67 64 63 62 65 67 63 63 62 58 53 51 57 48 42 39 33 36 36 38 39 39 36 26 29 28 28 29 34 32 29 34 39 41 55 41 24 19 28 30 33 34 36 38 39 42
60 67 73 69 67 66 64 66 68 64 62 63 58 52 50 51 47 41 33 32 32 31 32 32 33 28 28 30 28 27 33 37 40 41 25 29 40 34 22 15 20 26 28 32 34 37 39 41 42
39 58 68 70 70 70 63 64 69 66 60 60 57 55 52 51 50 42 36 36 32 29 24 20 22 22 26 27 29 28 25 37 36 36 33 37 32 19 4 13 23 28 30 33 35 39 41 42 44
26 45 49 67 70 69 59 63 64 60 57 56 57 55 52 51 49 44 39 39 35 30 26 18 20 28 27 24 22 20 19 27 24 28 33 48 42 12 16 21 24 28 31 34 36 39 41 43 45
21 30 41 60 65 66 59 63 63 55 53 57 57 55 56 55 51 42 40 40 36 33 28 22 25 27 27 24 22 20 19 25 21 32 50 18 15 14 26 27 28 31 33 36 38 40 42 44 46
27 25 28 42 49 64 62 56 56 58 57 60 57 55 55 52 47 44 45 40 39 35 30 26 29 28 25 26 27 23 20 21 25 34 18 16 16 26 26 30 32 34 36 37 39 41 42 39 38
21 27 34 36 48 54 56 57 57 55 56 56 56 53 51 50 47 48 48 47 42 38 33 30 32 31 30 25 22 22 20 25 27 20 20 23 25 28 31 33 32 32 33 35 38 40 38 38 40
25 28 33 31 48 42 55 61 52 51 51 52 51 53 53 52 48 48 47 45 43 40 37 36 34 31 28 25 25 24 26 27 29 27 27 27 29 32 32 31 30 33 34 37 39 38 36 39 42
17 29 30 37 33 45 52 61 55 49 47 47 50 51 54 52 49 46 46 44 43 41 37 36 33 32 31 28 28 28 28 29 28 29 28 29 30 30 30 32 34 35 36 39 38 37 39 41 43